Wednesday, January 17, 2018, 4:41 PM EST
Back to Local

KHPN, White Plains Westchester

Location: Greenwich, NY, United States Lat: 41.067
Local Time: 4:41 PM EST (21:41 GMT) Lon: -73.7
Time Zone: US/Eastern Elev: 439 ft

Show me the last for .
Show Decoded

2018-01-17 15:56 METAR KHPN 172056Z 30016KT 10SM BKN011 BKN055 M02/M04 A3015 RMK AO2 SLP219 60000
                 T10171039 55006 =
2018-01-17 14:56 METAR KHPN 171956Z 32009KT 7SM SCT011 BKN043 00/M02 A3014 RMK AO2 UPB1857E07
                 SLP213 P0000 T00001022 =
2018-01-17 13:56 METAR KHPN 171856Z 32011KT 5SM BR SCT010 BKN032 M01/M02 A3014 RMK AO2 SNE46
                 SLP214 P0000 T10061017 =
2018-01-17 12:56 METAR KHPN 171756Z 31009KT 1 1/4SM -SN BR OVC006 M01/M01 A3017 RMK AO2 SLP224
                 P0000 60007 T10061011 10011 21006 58021 =
2018-01-17 12:18 METAR KHPN 171718Z 31011KT 2SM -SN BR BKN005 OVC010 00/M01 A3018 RMK AO2 P0000
                 T00001011 =
2018-01-17 11:56 METAR KHPN 171656Z 29009KT 1SM R16/P6000FT -SN BR VV005 00/M01 A3019 RMK AO2
                 SLP230 P0001 T00001006 =
2018-01-17 10:56 METAR KHPN 171556Z 33006KT 3/4SM R16/4500V5500FT -SN BR VV004 00/M01 A3022 RMK
                 AO2 SLP242 P0001 T00001006 =
2018-01-17 09:56 METAR KHPN 171456Z 33005KT 1SM R16/P6000FT -SN BR VV004 01/00 A3023 RMK AO2
                 SLP245 P0001 60005 T00060000 50003 =
2018-01-17 08:56 METAR KHPN 171356Z 32007KT 1 1/2SM -SN BR BKN005 OVC014 00/M01 A3023 RMK AO2
                 SLP247 P0002 T00001006 =
2018-01-17 07:56 METAR KHPN 171256Z 31006KT 1SM R16/P6000FT -SN BR VV002 01/00 A3023 RMK AO2
                 RAE35SNB24 SLP245 P0002 T00060000 =
2018-01-17 06:56 METAR KHPN 171156Z 33005KT 1 1/2SM -RA BR VV003 01/01 A3022 RMK AO2 SLP243 P0003
                 60006 70006 T00110006 10017 20011 56007 =
2018-01-17 05:56 METAR KHPN 171056Z 06004KT 1SM R16/P6000FT -RA BR VV002 02/01 A3023 RMK AO2
                 DZE38RAB38 SLP244 P0000 T00170011 =
2018-01-17 04:56 METAR KHPN 170956Z 07005KT 2SM -DZ BR VV003 01/01 A3023 RMK AO2 RAE25DZB25
                 SLP244 P0000 T00110011 =
2018-01-17 03:56 METAR KHPN 170856Z VRB03KT 6SM -RA BR BKN005 OVC010 01/01 A3024 RMK AO2 SLP249
                 P0002 60003 T00110011 58016 =
2018-01-17 02:56 METAR KHPN 170756Z 08005KT 4SM -RA BR BKN005 OVC010 01/01 A3027 RMK AO2 SLP258
                 P0001 T00110006 =
2018-01-17 01:56 METAR KHPN 170656Z 07005KT 8SM -RA BKN006 OVC015 01/00 A3028 RMK AO2 RAB12
                 SLP261 P0000 T00110000 =
2018-01-17 00:56 METAR KHPN 170556Z 00000KT 10SM SCT009 BKN015 01/M01 A3029 RMK AO2 SLP266
                 T00111006 10017 21011 58022 =
2018-01-16 23:56 METAR KHPN 170456Z 09004KT 10SM FEW015 SCT024 BKN033 01/M01 A3031 RMK AO2 SLP273
                 T00111011 400111078 =
2018-01-16 22:56 METAR KHPN 170356Z 08004KT 10SM FEW015 BKN029 BKN035 01/M02 A3034 RMK AO2 SLP282
                 T00061022 =
2018-01-16 21:56 METAR KHPN 170256Z 08004KT 10SM BKN021 OVC029 00/M03 A3036 RMK AO2 SLP289
                 T00001028 58009 =
2018-01-16 20:56 METAR KHPN 170156Z 08004KT 10SM BKN027 OVC032 00/M04 A3037 RMK AO2 SLP293
                 T00001039 =
2018-01-16 19:56 METAR KHPN 170056Z AUTO 00000KT 10SM SCT024 OVC030 M01/M04 A3038 RMK AO2 SLP298
                 T10111044 =
2018-01-16 18:56 METAR KHPN 162356Z 00000KT 10SM SCT026 BKN070 M01/M04 A3038 RMK AO2 SLP300
                 T10111044 10000 21017 58004 =
2018-01-16 17:56 METAR KHPN 162256Z 00000KT 10SM BKN028 M01/M04 A3039 RMK AO2 SLP301 T10061044 =
2018-01-16 16:56 METAR KHPN 162156Z 10004KT 8SM BKN026 M01/M04 A3039 RMK AO2 SLP302 T10061044 =

Support USWX by starting your Amazon purchase here.